[[{"header":{"parameterUnit":"m.s-1","parameterCategory":1,"la1":30.2991,"la2":30.254,"lo1":-89.0895,"lo2":-89.0444,"dy":0.0017,"dx":0.0017,"nx":28,"ny":28,"refTime":"2025-04-19T03:00:00:Z","depth":0,"parameterNumber":2,"parameterNumberName":"U-component_of_WINDS"},"data":[0,0,0,0,0,0,0,0,0,0,0,0,0,0,0,0,0,0,0,0,0,0,0,0,0,0,0,0,0,0,0,0,0,0,0,0,0,0,0,0,0,0,0,0,0,0,0,0,0,0,0,0,0,0,0,0,0,0,-4.8472,-4.8474,0,-4.8654,-4.8656,-4.8658,-4.8686,-4.8684,-4.8683,-4.8681,-4.8865,-4.8871,-4.8877,0,0,0,0,0,0,0,0,0,0,0,0,0,-4.8146,-4.8152,-4.8472,-4.8474,-4.8476,-4.8653,-4.8656,-4.8658,-4.8686,-4.8684,-4.8682,-4.8681,-4.8863,-4.887,-4.8878,0,0,0,0,0,0,0,0,0,0,0,0,0,-4.8304,-4.8154,-4.8471,-4.8512,-4.8517,-4.8653,-4.8656,-4.8659,-4.8687,-4.8684,-4.8682,-4.868,-4.886,-4.8869,-4.8879,-4.8986,0,0,-4.8908,-4.8912,0,0,0,0,0,0,0,0,-4.8295,-4.8316,-4.8503,-4.8509,-4.8515,-4.8645,-4.8609,-4.8769,-4.8687,-4.8622,-4.8681,-4.8678,-4.8793,-4.8808,-4.8848,-4.8995,-4.9003,-4.8909,-4.8915,-4.8919,-4.8922,0,0,0,0,0,0,0,-4.8284,-4.8308,-4.8544,-4.8506,-4.8513,-4.852,-4.854,-4.8639,-4.8719,-4.8628,-4.863,-4.8651,-4.8796,-4.8838,-4.8852,-4.9006,-4.8909,-4.8917,-4.8923,-4.8927,-4.925,-4.9252,0,0,0,0,0,0,-4.8266,-4.8299,-4.8538,-4.8549,-4.8397,-4.8528,-4.855,-4.8606,-4.8718,-4.8733,-4.8653,-4.8652,-4.8823,-4.8841,-4.8859,-4.8991,-4.8919,-4.8928,-4.8933,-4.9247,-4.925,-4.9253,0,0,0,0,0,0,-4.8259,-4.8287,-4.8531,-4.8425,-4.8456,-4.8536,-4.8598,-4.8611,-4.8653,-4.8737,-4.8752,-4.8682,-4.8822,-4.8845,-4.8954,-4.8997,-4.8932,-4.8941,-4.9244,-4.9248,-4.9252,-4.9256,0,0,0,0,0,0,-4.825,-4.8284,-4.8326,-4.8426,-4.8462,-4.8624,-4.8601,-4.8616,-4.8669,-4.867,-4.8768,-4.8782,-4.8822,-4.894,-4.8964,-4.9009,-4.8948,-4.924,-4.9246,-4.9251,-4.9253,-4.926,-4.9267,0,0,0,0,0,-4.8238,-4.832,-4.8328,-4.8357,-4.8516,-4.8626,-4.8647,-4.8692,-4.8673,-4.8715,-4.877,-4.8779,-4.899,-4.8951,-4.8978,-4.9027,-4.9237,-4.9244,-4.925,-4.9249,-4.9259,-4.9266,0,0,0,0,0,0,-4.8222,-4.8334,-4.8344,-4.8461,-4.8534,-4.8631,-4.8685,-4.87,-4.878,-4.8776,-4.8828,-4.885,-4.8957,-4.9004,-4.8958,-4.9137,-4.9112,-4.9124,-4.9102,-4.9111,-4.9118,-4.9103,-4.8956,0,0,0,0,0,-4.8233,-4.8314,-4.8407,-4.8501,-4.8537,-4.8605,-4.8655,-4.8683,-4.8761,-4.8791,-4.8854,-4.8928,-4.9011,-4.9064,-4.9146,-4.9261,-4.9282,-4.9308,-4.9315,-4.932,-4.9329,-4.9392,-4.9405,-4.9274,-4.9274,-4.9274,0,0,-4.8255,-4.8326,-4.8373,-4.8499,-4.8559,-4.8641,-4.8631,-4.8718,-4.8778,-4.8804,-4.8911,-4.896,-4.9046,-4.9158,-4.9211,-4.9201,-4.937,-4.9328,-4.9332,-4.9338,-4.94,-4.9412,-4.9423,-4.9279,-4.9278,-4.9277,0,0,-4.8336,-4.8398,-4.8483,-4.8544,-4.8635,-4.868,-4.8701,-4.8796,-4.8829,-4.8938,-4.8959,-4.9032,-4.9174,-4.9235,-4.9284,-4.9389,-4.94,-4.9415,-4.945,-4.9511,-4.9521,-4.953,-4.9566,-4.9578,-4.9424,-4.9424,-4.9424,0,-4.8351,-4.8475,-4.8524,-4.8611,-4.8665,-4.8694,-4.878,-4.8836,-4.8949,-4.8985,-4.8973,-4.9152,-4.9212,-4.9338,-4.9364,-4.9404,-4.9428,-4.9402,-4.9516,-4.9526,-4.9535,-4.957,-4.9583,-4.9425,-4.9425,-4.9425,-4.9424,0,-4.8488,-4.8575,-4.8632,-4.8741,-4.8802,-4.8888,-4.8949,-4.9005,-4.9029,-4.9075,-4.9185,-4.9259,-4.9355,-4.9388,-4.9412,-4.9518,-4.9508,-4.9506,-4.9481,-4.9548,-4.9581,-4.9595,-4.9426,-4.9426,-4.9426,-4.9425,0,0,-4.8562,-4.8698,-4.8718,-4.8768,-4.8872,-4.8939,-4.9026,-4.9121,-4.9167,-4.9245,-4.9318,-4.9439,-4.9437,-4.9493,-4.9524,-4.9578,-4.9655,-4.9569,-4.9571,-4.958,-4.9774,-4.9773,-4.9788,-4.9664,-4.9667,-4.9669,-4.9766,0,-4.8653,-4.8809,-4.8856,-4.8987,-4.9066,-4.9096,-4.9172,-4.9243,-4.9289,-4.9363,-4.9414,-4.9498,-4.949,-4.9524,-4.9579,-4.9634,-4.9694,-4.9628,-4.973,-4.9733,-4.9705,-4.9806,-4.9806,-4.9894,-4.978,-4.9782,-4.9784,0,-4.8779,-4.886,-4.8998,-4.9092,-4.9127,-4.9194,-4.9285,-4.9356,-4.9438,-4.9468,-4.9531,-4.9558,-4.9649,-4.9622,-4.9747,-4.9701,-4.9746,-4.978,-4.9785,-4.9793,-4.976,-4.9815,-4.9923,-4.9935,-4.9805,-4.9803,-4.9802,0,-4.8816,-4.896,-4.9061,-4.9103,-4.9215,-4.9261,-4.931,-4.939,-4.9444,-4.9524,-4.9559,-4.9649,-4.9697,-4.9765,-4.9815,-4.9791,-4.9935,-4.9913,-4.9961,-4.996,-4.9987,-4.9984,-5.0101,-5.0021,-5.0021,-5.0021,-5.0021,0,-4.8911,-4.8994,-4.9078,-4.914,-4.9234,-4.9288,-4.9379,-4.943,-4.9501,-4.9572,-4.9604,-4.9671,-4.9735,-4.9809,-4.985,-4.9946,-4.9968,-4.9994,-5.0003,-4.9989,-4.9986,-5.0017,-5.0011,-5.0024,-5.0024,-5.0023,-5.0022,0,-4.8967,-4.9027,-4.9139,-4.9237,-4.9263,-4.9328,-4.9411,-4.9472,-4.9521,-4.9611,-4.9635,-4.971,-4.98,-4.9858,-4.9972,-4.9999,-5.0104,-5.0113,-5.0076,-5.008,-5.0125,-5.0119,-5.0264,-5.0285,-5.0193,-5.0194,-5.0194,0,-4.9022,-4.9086,-4.9192,-4.9242,-4.9292,-4.9373,-4.9429,-4.9485,-4.9542,-4.9641,-4.9689,-4.9781,-4.9858,-5.0,-5.0064,-5.0151,-5.0161,-5.0206,-5.0174,-5.0158,-5.0159,-5.0153,-5.0159,-5.021,-5.021,-5.0211,-5.0212,0,-4.9113,-4.914,-4.9219,-4.9309,-4.9375,-4.9449,-4.9522,-4.9562,-4.9631,-4.9693,-4.9785,-4.9845,-4.9962,-5.0052,-5.0146,-5.0196,-5.0215,-5.0222,-5.0237,-5.0222,-5.0197,-5.0209,-5.0088,-5.0217,-5.0217,-5.0216,-5.0216,-5.0216,-4.9168,-4.9227,-4.931,-4.9397,-4.9459,-4.9527,-4.9589,-4.9646,-4.9724,-4.9824,-4.9853,-4.9949,-5.003,-5.0157,-5.0209,-5.0285,-5.0279,-5.0302,-5.0307,-5.0311,-5.031,-5.0188,-5.0302,-5.0302,-5.0302,-5.0302,-5.0302,0,-4.9259,-4.9314,-4.9394,-4.9496,-4.9565,-4.9579,-4.9662,-4.9718,-4.9802,-4.9876,-4.9951,-5.0057,-5.0146,-5.0218,-5.0309,-5.0355,-5.0366,-5.0377,-5.0372,-5.0383,-5.0311,-5.0288,-5.0366,-5.0366,-5.0366,-5.0366,-5.0366,-5.0366,-4.9314,-4.9413,-4.945,-4.958,-4.9635,-4.9729,-4.9775,-4.9838,-4.9897,-5.0014,-5.0088,-5.0135,-5.0209,-5.0305,-5.0387,-5.0406,-5.0436,-5.0445,-5.0465,-5.0396,-5.0388,-5.0381,-5.0359,-5.0452,-5.0452,-5.053,-5.0531,-5.0532]},{"header":{"parameterUnit":"m.s-1","parameterCategory":1,"la1":30.2991,"la2":30.254,"lo1":-89.0895,"lo2":-89.0444,"dy":0.0017,"dx":0.0017,"nx":28,"ny":28,"refTime":"2025-04-19T03:00:00:Z","depth":0,"parameterNumber":3,"parameterNumberName":"V-component_of_WINDS"},"data":[0,0,0,0,0,0,0,0,0,0,0,0,0,0,0,0,0,0,0,0,0,0,0,0,0,0,0,0,0,0,0,0,0,0,0,0,0,0,0,0,0,0,0,0,0,0,0,0,0,0,0,0,0,0,0,0,0,0,3.5592,3.5593,0,3.5707,3.5708,3.571,3.5758,3.5758,3.5758,3.5757,3.5876,3.5879,3.5883,0,0,0,0,0,0,0,0,0,0,0,0,0,3.5416,3.5419,3.5592,3.5593,3.5595,3.5707,3.5708,3.571,3.5758,3.5758,3.5757,3.5757,3.5875,3.5879,3.5883,0,0,0,0,0,0,0,0,0,0,0,0,0,3.5508,3.542,3.5591,3.5632,3.5637,3.5707,3.5708,3.571,3.5758,3.5758,3.5757,3.5757,3.5874,3.5878,3.5883,3.5921,0,0,3.5899,3.5901,0,0,0,0,0,0,0,0,3.5503,3.5514,3.5625,3.5629,3.5635,3.5718,3.569,3.5781,3.5758,3.5712,3.5757,3.5757,3.5824,3.5833,3.5855,3.5927,3.5932,3.5899,3.5902,3.5905,3.5906,0,0,0,0,0,0,0,3.5496,3.551,3.5637,3.5626,3.5632,3.5646,3.5658,3.5708,3.5768,3.5716,3.572,3.5733,3.5826,3.585,3.5858,3.5934,3.5899,3.5904,3.5907,3.5909,3.6046,3.6047,0,0,0,0,0,0,3.5483,3.5504,3.5634,3.5641,3.5567,3.5649,3.5663,3.5692,3.5768,3.5779,3.5733,3.5735,3.5842,3.5852,3.5863,3.5914,3.5905,3.5909,3.5912,3.6046,3.6046,3.6047,0,0,0,0,0,0,3.5479,3.5494,3.5629,3.5574,3.5592,3.5652,3.5684,3.5694,3.5718,3.5781,3.5792,3.5746,3.5842,3.5856,3.5907,3.5919,3.5912,3.5916,3.6045,3.6046,3.6047,3.6016,0,0,0,0,0,0,3.5474,3.5492,3.5506,3.5573,3.5594,3.567,3.5685,3.5696,3.5726,3.573,3.5796,3.5807,3.5843,3.5899,3.5912,3.5926,3.592,3.6044,3.6045,3.6046,3.6016,3.6015,3.6015,0,0,0,0,0,3.5467,3.5492,3.5507,3.5522,3.5613,3.5671,3.5683,3.5724,3.5727,3.5742,3.5784,3.5804,3.5916,3.5904,3.5919,3.5934,3.6043,3.6045,3.6046,3.6016,3.6016,3.6015,0,0,0,0,0,0,3.5425,3.5502,3.5518,3.5566,3.5612,3.5679,3.5699,3.5722,3.5767,3.5768,3.5818,3.5832,3.588,3.5913,3.5898,3.5977,3.5981,3.5986,3.5953,3.5953,3.5953,3.5944,3.5924,0,0,0,0,0,3.5421,3.5461,3.5526,3.5562,3.5584,3.5638,3.5664,3.5692,3.5742,3.5761,3.5806,3.5853,3.5899,3.5928,3.5974,3.6021,3.6038,3.6039,3.6039,3.6038,3.6041,3.6071,3.6074,3.6052,3.6052,3.6051,0,0,3.5413,3.546,3.5482,3.5555,3.5593,3.5635,3.5654,3.5696,3.5727,3.5768,3.5819,3.5854,3.5911,3.5961,3.5985,3.5989,3.6051,3.604,3.6039,3.6043,3.6073,3.6075,3.6077,3.6052,3.6052,3.6052,0,0,3.542,3.546,3.5495,3.5534,3.5592,3.5628,3.5637,3.5702,3.5726,3.5779,3.5811,3.585,3.5927,3.5967,3.5997,3.6023,3.6045,3.6037,3.6034,3.6063,3.6065,3.6066,3.6077,3.608,3.604,3.604,3.604,0,3.5404,3.5466,3.551,3.5551,3.5583,3.5623,3.566,3.5695,3.5766,3.5787,3.5791,3.5891,3.5932,3.5993,3.6,3.6022,3.6035,3.6029,3.6061,3.6063,3.6065,3.6076,3.608,3.6039,3.6039,3.6039,3.6039,0,3.5444,3.5487,3.5508,3.5576,3.5611,3.5649,3.57,3.573,3.5756,3.5792,3.5847,3.5898,3.5955,3.5972,3.5997,3.6038,3.6039,3.6051,3.6057,3.6065,3.6076,3.6081,3.6037,3.6037,3.6037,3.6038,0,0,3.5425,3.5519,3.5526,3.5558,3.5627,3.5662,3.5704,3.5761,3.5786,3.5834,3.5871,3.5938,3.595,3.5985,3.6015,3.604,3.606,3.605,3.6052,3.6051,3.611,3.6101,3.6105,3.6075,3.6076,3.6077,3.6106,0,3.5442,3.5518,3.556,3.5619,3.5661,3.57,3.5737,3.5784,3.582,3.5862,3.5901,3.5948,3.596,3.5982,3.6009,3.6052,3.6073,3.605,3.6111,3.6113,3.6096,3.611,3.61,3.6124,3.611,3.6111,3.6112,0,3.5472,3.552,3.5583,3.565,3.5669,3.5701,3.5758,3.5797,3.5852,3.5877,3.5916,3.5947,3.5995,3.5997,3.6065,3.6048,3.6077,3.6102,3.6104,3.6111,3.6112,3.6118,3.6133,3.6137,3.6118,3.6118,3.6117,0,3.5453,3.5534,3.5583,3.5609,3.5688,3.571,3.5744,3.5799,3.5831,3.5881,3.5903,3.5958,3.5988,3.6031,3.6077,3.6074,3.614,3.6146,3.6163,3.6161,3.6174,3.6172,3.6194,3.6192,3.6191,3.6191,3.6191,0,3.5468,3.5505,3.5576,3.5606,3.565,3.5699,3.5741,3.5778,3.5828,3.5867,3.5905,3.5941,3.5998,3.6042,3.6078,3.613,3.6143,3.6165,3.6174,3.6162,3.6159,3.618,3.618,3.6192,3.6192,3.6192,3.6192,0,3.5454,3.5503,3.5559,3.563,3.5648,3.5678,3.5739,3.577,3.5809,3.5858,3.5873,3.5934,3.5988,3.6038,3.6109,3.6134,3.6186,3.6197,3.6167,3.6172,3.6186,3.6184,3.6222,3.623,3.6221,3.6221,3.6221,0,3.546,3.549,3.5565,3.5593,3.5627,3.5673,3.5706,3.5757,3.5791,3.5858,3.5882,3.5939,3.5986,3.6071,3.6122,3.6178,3.6192,3.6201,3.62,3.6187,3.6193,3.6191,3.6195,3.62,3.62,3.62,3.62,0,3.5467,3.549,3.5537,3.5593,3.5632,3.5679,3.5726,3.5748,3.5808,3.5845,3.5901,3.5938,3.6012,3.6069,3.6131,3.6167,3.6194,3.62,3.6207,3.6194,3.6176,3.6187,3.6165,3.6198,3.6199,3.6199,3.6199,3.6199,3.5464,3.5493,3.555,3.5602,3.5644,3.5688,3.5722,3.5766,3.5813,3.5877,3.5905,3.5962,3.6019,3.6105,3.6142,3.6188,3.6194,3.6204,3.6206,3.6208,3.6206,3.6169,3.62,3.62,3.62,3.62,3.62,0,3.5473,3.5512,3.5559,3.5626,3.5667,3.5689,3.5744,3.5777,3.5827,3.5878,3.5925,3.5991,3.6047,3.6103,3.6163,3.6189,3.6203,3.6203,3.6201,3.621,3.6197,3.6185,3.6191,3.6191,3.6191,3.6191,3.6191,3.6191,3.5482,3.5533,3.5564,3.5637,3.5677,3.5733,3.5762,3.5805,3.5846,3.5917,3.5964,3.6001,3.6055,3.6119,3.6172,3.6188,3.6208,3.6204,3.6223,3.621,3.621,3.6211,3.62,3.6208,3.6208,3.6233,3.6233,3.6233]}]]